FW1203 Weather Reports


Display with metric or nautical units.
time (UTC)temp
F
wind
direction
speed
MPH
gust
MPH
rain 1hr
in
rain 24hr
in
rain mn
in
humidity
%
barometer
mb
20260506214833 57 280 1.0 4.0 0.00 0.00 0.00 43 1011.6
20260506214333 57 296 1.0 4.0 0.00 0.00 0.00 43 1011.7
20260506213833 58 273 1.0 4.0 0.00 0.00 0.00 43 1011.7
20260506213333 58 272 1.0 4.0 0.00 0.00 0.00 41 1011.6
20260506212833 58 261 1.0 4.0 0.00 0.00 0.00 43 1011.7
20260506212333 58 213 0.0 6.0 0.00 0.00 0.00 41 1011.6
20260506211833 59 241 1.0 6.0 0.00 0.00 0.00 40 1011.6
20260506211332 60 269 2.0 6.0 0.00 0.00 0.00 37 1011.6
20260506210832 60 271 2.0 6.0 0.00 0.00 0.00 36 1011.5
20260506210333 61 257 1.0 3.0 0.00 0.00 0.00 36 1011.4
20260506205833 60 288 1.0 4.0 0.00 0.00 0.00 37 1011.5
20260506205333 60 279 1.0 4.0 0.00 0.00 0.00 35 1011.6
20260506204833 60 263 1.0 8.0 0.00 0.00 0.00 36 1011.5
20260506204333 60 269 1.0 8.0 0.00 0.00 0.00 37 1011.6
20260506203833 59 235 0.0 3.0 0.00 0.00 0.00 38 1011.6
20260506203333 59 266 1.0 6.0 0.00 0.00 0.00 39 1011.7
20260506202833 59 279 1.0 6.0 0.00 0.00 0.00 39 1011.7
20260506202333 58 269 2.0 6.0 0.00 0.00 0.00 38 1011.9
20260506201833 58 301 1.0 3.0 0.00 0.00 0.00 40 1011.8
20260506201333 59 290 1.0 7.0 0.00 0.00 0.00 42 1011.9
20260506200833 60 282 2.0 7.0 0.00 0.00 0.00 37 1012.1
20260506200333 60 257 1.0 6.0 0.00 0.00 0.00 39 1012.1
20260506195833 60 254 1.0 6.0 0.00 0.00 0.00 38 1012.2
20260506195333 59 263 1.0 6.0 0.00 0.00 0.00 39 1012.2
20260506194833 58 273 2.0 4.0 0.00 0.00 0.00 41 1012.3
20260506194333 58 280 0.0 4.0 0.00 0.00 0.00 42 1012.3
20260506193833 58 280 1.0 4.0 0.00 0.00 0.00 40 1012.3
20260506193333 58 269 1.0 8.0 0.00 0.00 0.00 42 1012.4
20260506192833 58 283 2.0 8.0 0.00 0.00 0.00 42 1012.4
20260506192333 58 287 0.0 4.0 0.00 0.00 0.00 41 1012.4
20260506191833 58 273 0.0 4.0 0.00 0.00 0.00 42 1012.4
20260506191333 57 278 0.0 3.0 0.00 0.00 0.00 41 1012.4
20260506190833 57 278 1.0 8.0 0.00 0.00 0.00 43 1012.4
20260506190332 57 271 2.0 8.0 0.00 0.00 0.00 44 1012.4
20260506185833 57 264 1.0 6.0 0.00 0.00 0.00 41 1012.4
20260506185333 57 229 1.0 6.0 0.00 0.00 0.00 41 1012.6
20260506184833 56 254 1.0 4.0 0.00 0.00 0.00 42 1012.4
20260506184333 56 271 1.0 7.0 0.00 0.00 0.00 42 1012.4
20260506183833 56 282 2.0 7.0 0.00 0.00 0.00 41 1012.4
20260506183333 57 273 1.0 5.0 0.00 0.00 0.00 41 1012.4
20260506182833 57 258 1.0 4.0 0.00 0.00 0.00 42 1012.4
20260506182333 57 271 1.0 4.0 0.00 0.00 0.00 41 1012.3
20260506181833 58 278 1.0 6.0 0.00 0.00 0.00 41 1012.4
20260506181333 58 275 1.0 6.0 0.00 0.00 0.00 40 1012.3
20260506180833 58 262 1.0 5.0 0.00 0.00 0.00 42 1012.3
20260506180333 58 264 1.0 4.0 0.00 0.00 0.00 42 1012.2
20260506175833 58 274 1.0 4.0 0.00 0.00 0.00 41 1012.3
20260506175333 58 260 0.0 3.0 0.00 0.00 0.00 43 1012.5
20260506174833 58 252 1.0 6.0 0.00 0.00 0.00 42 1012.5
20260506174333 57 271 1.0 6.0 0.00 0.00 0.00 41 1012.5
20260506173832 57 268 0.0 4.0 0.00 0.00 0.00 41 1012.5
20260506173333 57 268 1.0 4.0 0.00 0.00 0.00 40 1012.5
20260506172333 58 271 1.0 6.0 0.00 0.00 0.00 42 1012.6
20260506171833 58 210 1.0 6.0 0.00 0.00 0.00 42 1012.6
20260506171332 58 254 1.0 6.0 0.00 0.00 0.00 42 1012.6
20260506170832 57 249 1.0 7.0 0.00 0.00 0.00 44 1012.7
20260506170333 58 284 1.0 7.0 0.00 0.00 0.00 43 1012.8
20260506165833 58 273 1.0 7.0 0.00 0.00 0.00 42 1012.8
20260506165333 58 269 1.0 7.0 0.00 0.00 0.00 40 1012.8
20260506164833 58 259 1.0 4.0 0.00 0.00 0.00 47 1012.7
20260506164333 57 255 1.0 4.0 0.00 0.00 0.00 43 1012.8
20260506163833 57 270 1.0 6.0 0.00 0.00 0.00 40 1012.7
20260506163333 57 278 2.0 7.0 0.00 0.00 0.00 39 1012.9
20260506162833 57 270 1.0 7.0 0.00 0.00 0.00 40 1012.8
20260506162333 57 252 0.0 6.0 0.00 0.00 0.00 39 1012.8
20260506161833 57 252 1.0 6.0 0.00 0.00 0.00 40 1012.8
20260506161333 57 263 1.0 4.0 0.00 0.00 0.00 41 1012.7
20260506160833 57 273 2.0 8.0 0.00 0.00 0.00 41 1012.8
20260506160333 56 288 1.0 8.0 0.00 0.00 0.00 42 1012.8
20260506155833 56 278 0.0 4.0 0.00 0.00 0.00 44 1012.8
20260506155333 56 281 1.0 4.0 0.00 0.00 0.00 41 1012.8
20260506154833 56 293 0.0 3.0 0.00 0.00 0.00 42 1012.7
20260506154333 56 280 1.0 3.0 0.00 0.00 0.00 40 1012.8
20260506153833 56 314 0.0 3.0 0.00 0.00 0.00 42 1012.8
20260506153333 57 251 1.0 3.0 0.00 0.00 0.00 40 1012.8
20260506152833 56 227 1.0 4.0 0.00 0.00 0.00 40 1012.8
20260506152333 56 257 1.0 4.0 0.00 0.00 0.00 41 1012.8
20260506151833 56 296 1.0 3.0 0.00 0.00 0.00 46 1012.9
20260506151333 56 0 0.0 0.0 0.00 0.00 0.00 45 1012.8
20260506150833 56 257 0.0 1.0 0.00 0.00 0.00 46 1012.9
20260506150333 56 257 0.0 1.0 0.00 0.00 0.00 49 1012.9
20260506145833 55 257 0.0 1.0 0.00 0.00 0.00 46 1012.9
20260506145333 55 257 0.0 1.0 0.00 0.00 0.00 47 1013.0
20260506144833 55 256 0.0 3.0 0.00 0.00 0.00 47 1013.1
20260506144333 54 223 0.0 3.0 0.00 0.00 0.00 47 1013.0
20260506143833 54 317 0.0 1.0 0.00 0.00 0.00 48 1013.0
20260506143333 54 232 0.0 2.0 0.00 0.00 0.00 50 1013.1
20260506142833 54 232 0.0 2.0 0.00 0.00 0.00 49 1013.0
20260506142333 53 189 0.0 1.0 0.00 0.00 0.00 51 1013.0
20260506141833 53 183 0.0 3.0 0.00 0.00 0.00 50 1013.0
20260506141333 53 183 0.0 3.0 0.00 0.00 0.00 50 1012.9
20260506140833 53 176 0.0 2.0 0.00 0.00 0.00 52 1012.9
20260506140333 52 176 0.0 2.0 0.00 0.00 0.00 51 1012.8
20260506135833 52 181 0.0 1.0 0.00 0.00 0.00 52 1012.8
20260506135333 52 181 0.0 1.0 0.00 0.00 0.00 54 1012.8
20260506134833 52 0 0.0 0.0 0.00 0.00 0.00 54 1012.7
20260506134333 52 208 0.0 2.0 0.00 0.00 0.00 54 1012.6
20260506133833 52 208 0.0 2.0 0.00 0.00 0.00 51 1012.5
20260506133333 52 210 0.0 2.0 0.00 0.00 0.00 53 1012.4
20260506132833 51 213 0.0 2.0 0.00 0.00 0.00 53 1012.4
20260506132333 51 0 0.0 0.0 0.00 0.00 0.00 58 1012.3
20260506131833 50 0 0.0 0.0 0.00 0.00 0.00 58 1012.4
20260506131333 50 0 0.0 0.0 0.00 0.00 0.00 60 1012.3
20260506130833 49 0 0.0 0.0 0.00 0.00 0.00 62 1012.3
20260506130333 48 0 0.0 0.0 0.00 0.00 0.00 65 1012.3
20260506125833 47 0 0.0 0.0 0.00 0.00 0.00 67 1012.2
20260506125333 46 0 0.0 0.0 0.00 0.00 0.00 71 1012.2
20260506124833 45 0 0.0 0.0 0.00 0.00 0.00 77 1012.1
20260506124333 45 0 0.0 0.0 0.00 0.00 0.00 81 1012.1
20260506123833 44 0 0.0 0.0 0.00 0.00 0.00 84 1012.0
20260506123333 44 0 0.0 0.0 0.00 0.00 0.00 85 1012.1
20260506122833 43 0 0.0 0.0 0.00 0.00 0.00 86 1012.0
20260506122333 43 0 0.0 0.0 0.00 0.00 0.00 86 1011.8
20260506121833 42 0 0.0 0.0 0.00 0.00 0.00 87 1011.8
20260506121333 42 0 0.0 0.0 0.00 0.00 0.00 87 1011.8
20260506120833 42 0 0.0 0.0 0.00 0.00 0.00 87 1011.8
20260506120333 41 0 0.0 0.0 0.00 0.00 0.00 87 1011.8
20260506115833 41 0 0.0 0.0 0.00 0.00 0.00 87 1011.8
20260506115332 41 0 0.0 0.0 0.00 0.00 0.00 86 1011.8
20260506114833 40 0 0.0 0.0 0.00 0.00 0.00 86 1011.7
20260506114333 40 0 0.0 0.0 0.00 0.00 0.00 86 1011.6
20260506113833 40 0 0.0 0.0 0.00 0.00 0.00 85 1011.6
20260506113333 40 0 0.0 0.0 0.00 0.00 0.00 85 1011.6
20260506112833 40 0 0.0 0.0 0.00 0.00 0.00 84 1011.5
20260506112333 40 0 0.0 0.0 0.00 0.00 0.00 84 1011.5
20260506111833 40 0 0.0 0.0 0.00 0.00 0.00 84 1011.4
20260506111333 40 0 0.0 0.0 0.00 0.00 0.00 83 1011.4
20260506110833 41 0 0.0 0.0 0.00 0.00 0.00 83 1011.3
20260506110333 41 0 0.0 0.0 0.00 0.00 0.00 82 1011.3
20260506105833 41 0 0.0 0.0 0.00 0.00 0.00 81 1011.2
20260506105333 41 0 0.0 0.0 0.00 0.00 0.00 81 1011.1
20260506104833 41 0 0.0 0.0 0.00 0.00 0.00 80 1011.0
20260506104333 41 0 0.0 0.0 0.00 0.00 0.00 80 1010.9
20260506103833 42 0 0.0 0.0 0.00 0.00 0.00 80 1010.7
20260506103332 42 0 0.0 0.0 0.00 0.00 0.00 79 1010.6
20260506102833 42 0 0.0 0.0 0.00 0.00 0.00 79 1010.5
20260506102333 42 0 0.0 0.0 0.00 0.00 0.00 79 1010.5
20260506101833 42 0 0.0 0.0 0.00 0.00 0.00 78 1010.4
20260506101333 42 0 0.0 0.0 0.00 0.00 0.00 78 1010.4
20260506100833 42 0 0.0 0.0 0.00 0.00 0.00 78 1010.6
20260506100333 43 0 0.0 0.0 0.00 0.00 0.00 77 1010.6
20260506095833 43 0 0.0 0.0 0.00 0.00 0.00 77 1010.6
20260506095333 43 0 0.0 0.0 0.00 0.00 0.00 77 1010.6
20260506094833 43 0 0.0 0.0 0.00 0.00 0.00 77 1010.6
20260506094333 43 0 0.0 0.0 0.00 0.00 0.00 76 1010.4
20260506093833 43 0 0.0 0.0 0.00 0.00 0.00 75 1010.6
20260506093333 43 0 0.0 0.0 0.00 0.00 0.00 75 1010.5
20260506092833 43 0 0.0 0.0 0.00 0.00 0.00 73 1010.5
20260506092333 43 0 0.0 0.0 0.00 0.00 0.00 72 1010.4
20260506091833 43 0 0.0 0.0 0.00 0.00 0.00 72 1010.6
20260506091333 44 0 0.0 0.0 0.00 0.00 0.00 71 1010.7
20260506090833 44 0 0.0 0.0 0.00 0.00 0.00 71 1010.9
20260506090333 44 0 0.0 0.0 0.00 0.00 0.00 71 1010.8
20260506085833 44 0 0.0 0.0 0.00 0.00 0.00 70 1010.7
20260506085333 44 0 0.0 0.0 0.00 0.00 0.00 70 1010.5
20260506084833 44 0 0.0 0.0 0.00 0.00 0.00 69 1010.4
20260506083833 45 0 0.0 0.0 0.00 0.00 0.00 68 1010.5
20260506083333 45 0 0.0 0.0 0.00 0.00 0.00 68 1010.4
20260506082833 45 0 0.0 0.0 0.00 0.00 0.00 67 1010.3
20260506082333 46 0 0.0 0.0 0.00 0.00 0.00 66 1010.4
20260506081833 46 0 0.0 0.0 0.00 0.00 0.00 66 1010.4
20260506081333 46 0 0.0 0.0 0.00 0.00 0.00 65 1010.4
20260506080833 46 0 0.0 0.0 0.00 0.00 0.00 65 1010.2
20260506080333 46 0 0.0 0.0 0.00 0.00 0.00 64 1010.1
20260506073333 47 256 0.0 3.0 0.00 0.00 0.00 62 1009.9
20260506072833 47 256 0.0 3.0 0.00 0.00 0.00 62 1009.9
20260506072333 47 255 0.0 2.0 0.00 0.00 0.00 62 1009.9
20260506071833 47 260 0.0 2.0 0.00 0.00 0.00 62 1009.9
20260506071333 47 325 0.0 3.0 0.00 0.00 0.00 64 1009.9
20260506070833 47 260 0.0 3.0 0.00 0.00 0.00 64 1009.9
20260506070333 47 210 0.0 3.0 0.00 0.00 0.00 65 1009.8
20260506062333 48 239 0.0 2.0 0.00 0.00 0.00 64 1010.0
20260506061833 48 25 0.0 4.0 0.00 0.00 0.00 65 1010.0
20260506061333 48 283 0.0 4.0 0.00 0.00 0.00 65 1009.9
20260506060833 48 245 0.0 2.0 0.00 0.00 0.00 64 1010.1
20260506060333 49 266 0.0 2.0 0.00 0.00 0.00 65 1010.1
20260506050833 51 228 0.0 2.0 0.00 0.00 0.00 62 1009.5
20260506050333 51 208 0.0 2.0 0.00 0.00 0.00 62 1009.3
20260506044833 51 0 0.0 0.0 0.00 0.00 0.00 62 1009.3
20260506044333 52 0 0.0 0.0 0.00 0.00 0.00 61 1009.4
20260506043833 52 0 0.0 0.0 0.00 0.00 0.00 60 1009.4
20260506043333 52 0 0.0 0.0 0.00 0.00 0.00 59 1009.4
20260506042833 52 0 0.0 0.0 0.00 0.00 0.00 58 1009.4
20260506042333 52 193 0.0 1.0 0.00 0.00 0.00 59 1009.4
20260506041833 52 193 0.0 1.0 0.00 0.00 0.00 59 1009.3
20260506041333 52 194 0.0 1.0 0.00 0.00 0.00 59 1009.5
20260506040833 52 194 0.0 3.0 0.00 0.00 0.00 58 1009.3
20260506040333 52 167 0.0 3.0 0.00 0.00 0.00 57 1009.2
20260506035833 53 0 0.0 0.0 0.00 0.00 0.00 57 1009.1
20260506035333 53 187 0.0 1.0 0.00 0.00 0.00 55 1009.1
20260506034833 53 187 0.0 1.0 0.00 0.00 0.00 54 1009.2
20260506034333 53 187 0.0 1.0 0.00 0.00 0.00 52 1009.0
20260506033833 52 187 0.0 1.0 0.00 0.00 0.00 52 1008.9
20260506033333 52 189 0.0 1.0 0.00 0.00 0.00 51 1008.7
20260506032833 52 194 0.0 1.0 0.00 0.00 0.00 52 1008.6
20260506032333 52 0 0.0 0.0 0.00 0.00 0.00 54 1008.6
20260506031833 52 0 0.0 0.0 0.00 0.00 0.00 53 1008.7
20260506031333 52 0 0.0 0.0 0.00 0.00 0.00 54 1008.7
20260506030833 53 0 0.0 0.0 0.00 0.00 0.00 54 1008.5
20260506030333 53 0 0.0 0.0 0.00 0.00 0.00 53 1008.6
20260506025833 53 0 0.0 0.0 0.00 0.00 0.00 53 1008.7
20260506025333 53 0 0.0 0.0 0.00 0.00 0.00 51 1008.7
20260506024833 53 0 0.0 0.0 0.00 0.00 0.00 52 1008.7
20260506024333 53 0 0.0 0.0 0.00 0.00 0.00 51 1008.7
20260506023833 53 0 0.0 0.0 0.00 0.00 0.00 50 1008.4
20260506023333 54 0 0.0 0.0 0.00 0.00 0.00 50 1008.4
20260506022833 54 0 0.0 0.0 0.00 0.00 0.00 51 1008.4
20260506022333 54 0 0.0 0.0 0.00 0.00 0.00 50 1008.3
20260506021833 54 0 0.0 0.0 0.00 0.00 0.00 50 1008.3
20260506021333 54 0 0.0 0.0 0.00 0.00 0.00 50 1008.2
20260506020833 54 0 0.0 0.0 0.00 0.00 0.00 50 1008.2
20260506020333 54 0 0.0 0.0 0.00 0.00 0.00 48 1007.9
20260506015833 54 0 0.0 0.0 0.00 0.00 0.00 48 1007.9
20260506015333 54 0 0.0 0.0 0.00 0.00 0.00 48 1008.0
20260506014833 55 0 0.0 0.0 0.00 0.00 0.00 47 1007.9
20260506013833 55 0 0.0 0.0 0.00 0.00 0.00 46 1007.4
20260506013333 55 0 0.0 0.0 0.00 0.00 0.00 47 1007.5
20260506012833 55 0 0.0 0.0 0.00 0.00 0.00 46 1007.5
20260506012333 55 0 0.0 0.0 0.00 0.00 0.00 46 1007.5
20260506011833 55 0 0.0 0.0 0.00 0.00 0.00 46 1007.4
20260506011333 55 0 0.0 0.0 0.00 0.00 0.00 47 1007.2
20260506010833 55 0 0.0 0.0 0.00 0.00 0.00 46 1007.2
20260506010333 55 0 0.0 0.0 0.00 0.00 0.00 46 1007.1
20260506005833 56 0 0.0 0.0 0.00 0.00 0.00 45 1007.1
20260506005333 56 0 0.0 0.0 0.00 0.00 0.00 46 1007.1
20260506004833 56 0 0.0 0.0 0.00 0.00 0.00 46 1007.0
20260506004333 56 0 0.0 0.0 0.00 0.00 0.00 45 1007.0
20260506003833 56 0 0.0 0.0 0.00 0.00 0.00 44 1006.9
20260506003333 56 0 0.0 0.0 0.00 0.00 0.00 44 1006.7
20260506002833 56 0 0.0 0.0 0.00 0.00 0.00 45 1006.8
20260506002333 56 0 0.0 0.0 0.00 0.00 0.00 44 1006.9
20260506001833 57 0 0.0 0.0 0.00 0.00 0.00 44 1007.0
20260506001333 57 0 0.0 0.0 0.00 0.00 0.00 43 1006.9
20260506000833 57 0 0.0 0.0 0.00 0.00 0.00 42 1006.8
20260506000333 57 277 0.0 1.0 0.00 0.00 0.00 42 1006.8
20260505235333 57 278 0.0 2.0 0.00 0.00 0.00 43 1006.8
20260505234833 57 278 0.0 2.0 0.00 0.00 0.00 41 1006.8
20260505234333 57 0 0.0 0.0 0.00 0.00 0.00 43 1006.9
20260505233833 57 0 0.0 0.0 0.00 0.00 0.00 42 1006.9
20260505233333 57 0 0.0 0.0 0.00 0.00 0.00 42 1006.9
20260505232833 57 278 0.0 1.0 0.00 0.00 0.00 42 1006.9
20260505232333 57 278 0.0 2.0 0.00 0.00 0.00 43 1006.9
20260505231833 57 267 0.0 2.0 0.00 0.00 0.00 41 1006.9
20260505231333 58 277 0.0 3.0 0.00 0.00 0.00 42 1007.0
20260505230833 58 280 0.0 3.0 0.00 0.00 0.00 41 1007.0
20260505230333 58 258 1.0 3.0 0.00 0.00 0.00 39 1007.0
20260505225833 58 279 0.0 3.0 0.00 0.00 0.00 40 1007.1
20260505225333 58 26 0.0 3.0 0.00 0.00 0.00 41 1007.3
20260505224833 58 278 0.0 3.0 0.00 0.00 0.00 41 1007.2
20260505224333 58 263 0.0 4.0 0.00 0.00 0.00 41 1007.1
20260505223833 58 262 0.0 4.0 0.00 0.00 0.00 39 1007.1
20260505223333 58 0 0.0 0.0 0.00 0.00 0.00 43 1007.0
20260505222833 58 0 0.0 0.0 0.00 0.00 0.00 43 1007.0
20260505222333 58 0 0.0 0.0 0.00 0.00 0.00 41 1007.0
20260505221833 58 0 0.0 0.0 0.00 0.00 0.00 41 1007.0
20260505221333 58 261 0.0 1.0 0.00 0.00 0.00 41 1007.1
20260505220833 58 261 0.0 1.0 0.00 0.00 0.00 41 1007.2
20260505220333 58 0 0.0 0.0 0.00 0.00 0.00 43 1007.1
20260505215833 58 261 0.0 2.0 0.00 0.00 0.00 40 1007.2
20260505215333 58 261 0.0 2.0 0.00 0.00 0.00 39 1007.1